Location: Copper Mountain Observatory
(34.1350°N, 116.3120°W)
Time: 00:09:36
(UTC-08:00)

Daily predictions for brighter satellites

Satellite Brightness Start Highest point End
(mag) Time Altitude Azimuth Time Altitude Azimuth Time Altitude Azimuth
Cosmos 2278 Rocket 3.1 03:55:57 41° SSE 03:55:57 41° SSE 03:59:30 10° SSE
SL-16 R/B 2.9 03:59:24 46° NE 03:59:24 46° NE 04:03:26 10° NNE
ATLAS CENTAUR Rocket 3.8 03:55:52 43° WSW 04:00:05 61° S 04:05:26 10° ESE
Cosmos 1680 Rocket 3.5 04:19:29 74° NE 04:19:29 74° NE 04:24:15 10° NNE
USA 215 3.2 04:20:40 10° NE 04:27:05 63° NW 04:28:10 55° W
Cosmos 2181 Rocket 3.9 04:27:25 27° NNW 04:31:10 77° W 04:37:29 10° S
Tiangong 2 3.9 04:38:00 13° NE 04:38:00 13° NE 04:38:29 10° NE
H-2A ROCKET BODY 4.0 04:32:38 30° SW 04:36:18 45° S 05:07:46 10° SE
Cosmos 2112 Rocket 3.8 04:32:41 10° SSW 04:37:54 76° WNW 04:43:07 10° NNE
OAO 3 Copernicus 4.2 04:39:32 65° WSW 04:40:17 86° SSE 04:45:23 10° E
Feng Yun 1-1 Rocket 4.2 04:36:15 10° N 04:41:45 58° WNW 04:47:05 10° SSW
NOAA 6 4.0 04:37:34 10° NNE 04:42:42 82° ESE 04:47:49 10° S
CENTAUR R/B 3.4 04:46:00 30° NNW 04:46:00 30° NNW 04:51:00 10° NNE
Cosmos 1536 Rocket 4.2 04:43:30 10° N 04:47:50 55° E 04:52:08 10° SSE
Meteor 1-18 Rocket 4.3 04:42:13 10° N 04:48:10 84° E 04:54:06 10° S
Cosmos 1238 Rocket 3.5 04:47:59 16° N 04:51:58 90° ESE 04:57:49 10° S
Gbstr 26 Del rocket 3.0 04:51:19 47° NNW 04:52:33 77° NE 04:56:36 10° SE
Cosmos 1603 3.8 04:49:33 10° SSW 04:55:14 77° ESE 05:00:55 10° NNE
Thor Agena Rocket 4.1 04:56:22 10° SSW 05:00:55 34° W 05:00:55 34° W
Okean 1 Rocket 4.1 04:58:44 10° SSE 05:02:59 48° E 05:07:12 10° NNE
Meteor 1-20 Rocket 4.1 05:00:41 10° SSW 05:06:13 60° W 05:11:41 10° N
COSMO-SKYMED 1 2.5 05:04:14 10° SSE 05:08:34 87° ENE 05:12:55 10° NNW
Lacrosse 5 2.2 05:05:10 10° SSW 05:10:14 70° SE 05:15:19 10° NE
Cosmos 921 Rocket 3.0 05:08:51 14° NNW 05:12:47 89° WSW 05:17:18 10° SSE
Cosmos 2297 4.3 05:18:46 22° NW 05:21:37 36° WSW 05:26:43 10° SSW
Cosmos 1943 4.0 05:17:02 10° S 05:22:29 55° ESE 05:27:58 10° NNE
Cosmos 192 4.3 05:17:49 10° SSW 05:22:44 88° WNW 05:27:39 10° NNE
Cosmos 2056 Rocket 3.9 05:19:12 10° N 05:24:19 64° ENE 05:29:22 10° SSE
Nadezhda 3 Rocket 4.4 05:18:00 10° N 05:24:21 69° E 05:30:40 10° SSE
Okean 1 3.4 05:21:04 11° NNW 05:24:54 53° W 05:28:50 10° S
DELTA 2 R/B (1) 3.9 05:23:09 22° W 05:26:35 55° SSW 05:31:59 10° SE
Cosmos 44 Rocket 3.4 05:23:11 10° SSW 05:28:22 88° WNW 05:33:33 10° NNE
DMSP B5D1-3 4.5 05:27:37 10° S 05:32:43 68° WSW 05:37:52 10° NNW
Cosmos 1300 Rocket 3.7 05:30:40 10° SSW 05:34:58 51° W 05:39:17 10° N
Meteor 1-11 Rocket 3.8 05:29:43 10° S 05:35:37 82° W 05:41:27 10° N
Cosmos 1602 3.8 05:32:23 10° SSW 05:36:16 58° W 05:40:11 10° N
Cosmos 2341 Rocket 4.1 05:31:00 10° S 05:37:18 85° E 05:43:36 10° N
Cosmos 1624 Rocket 4.0 05:33:08 10° NNW 05:38:26 84° WSW 05:43:45 10° SSE
IDEFIX/ARIANE 42P 4.0 05:33:54 10° NNE 05:38:48 42° E 05:43:43 10° S
Centaur AC-112 4.3 05:38:03 10° SW 05:40:04 14° S 05:41:29 10° SE
Cosmos 1812 4.0 05:38:56 17° WNW 05:40:31 21° W 05:43:29 10° SW
GPS 2-05 Rocket1 2.9 05:38:42 19° WNW 05:41:11 75° N 05:44:49 10° E
SL-16 R/B 3.7 05:41:26 14° WNW 05:42:25 15° NW 05:45:37 10° NNW
Cosmos 1371 Rocket 4.1 05:37:17 10° NNW 05:42:31 61° WSW 05:47:40 10° S
Ariane Rocket 3.2 05:37:51 10° N 05:42:41 47° WNW 05:47:30 10° SW
Cosmos 1346 Rocket 3.3 05:40:39 10° NNW 05:44:15 37° W 05:47:52 10° SSW
SL-24 DEB 4.3 05:40:36 10° S 05:45:21 79° W 05:50:10 10° N
Meteor 1-13 Rocket 4.4 05:46:39 10° NNW 05:52:32 63° W 05:58:22 10° S
Centaur AC-42 4.3 05:50:32 10° SSW 05:52:42 14° SSE 05:55:25 10° SE
SJ-12 4.2 05:49:07 10° NNE 05:53:17 73° ESE 05:57:25 10° S
CZ-4 R/B 1.3 05:49:22 10° NNE 05:53:20 86° ESE 05:57:14 10° SSW
Cosmos 1943 Rocket 4.2 05:51:01 10° N 05:55:25 24° ENE 05:59:48 10° ESE
Meteor 1-28 Rocket 3.9 05:59:05 10° SSW 06:02:32 34° W 06:06:01 10° NNW
Cosmos 1633 3.6 06:01:24 10° SW 06:04:28 25° W 06:07:32 10° NNW
Cosmos 1536 3.2 06:01:59 10° SSW 06:05:45 42° W 06:09:34 10° N
Meteor 1-23 Rocket 4.3 06:02:21 10° N 06:07:55 87° E 06:13:29 10° S
Abrixas rocket 2.9 06:05:23 10° WSW 06:08:31 36° NNW 06:11:40 10° NE
Cosmos 2154 Rocket 4.5 06:03:40 10° SW 06:09:23 38° WNW 06:15:07 10° NNW
